Weather History for Ashland, WI

Change the Weather History Date:

Friday, March 22, 2013

  Actual Average Record
Temperature  
Mean Temperature 18 °F -  
Max Temperature 30 °F 41 °F 65 °F (1987)
Min Temperature 7 °F 18 °F -7 °F (1989)
Degree Days  
Heating Degree Days 46    
Moisture  
Dew Point 14 °F    
Average Humidity 77    
Maximum Humidity 100    
Minimum Humidity 64    
Precipitation  
Precipitation 0.00 in - - ()
Sea Level Pressure  
Sea Level Pressure 30.11 in    
Wind  
Wind Speed 5 mph (NNW)    
Max Wind Speed 10 mph    
Max Gust Speed -    
Visibility 9 miles    
Events      
Averages and records for this station are not official NWS values.
T = Trace of Precipitation, MM = Missing Value Source: NWS Daily Summary

Daily Weather History Graph

Daily Weather History Graph

Search for Another Location

Airport:

Trip Planner

Search our weather history database for the weather conditions in past years. The results will help you decide how hot, cold, wet, or windy it might be!

Date:

Astronomy

Mar. 22, 2013 Rise Set
Actual Time 7:02 AM CDT 7:19 PM CDT
Civil Twilight 6:32 AM CDT 7:49 PM CDT
Nautical Twilight 5:56 AM CDT 8:25 PM CDT
Astronomical Twilight 5:19 AM CDT 9:02 PM CDT
Moon 2:32 PM CDT (3/22) 4:17 AM CDT (3/22)
Length of Visible Light 13h 17m
Length of Day
12h 17m
Waxing Gibbous, 77% of the Moon is Illuminated
Mar 22
Waxing Gibbous
Mar 27
Full
Apr 2
Last Quarter
Apr 10
New
Apr 18
First Quarter

Hourly Weather History & Observations

Time (CDT) Temp. Windchill Dew Point Humidity Pressure Visibility Wind Dir Wind Speed Gust Speed Precip Events Conditions
12:53 AM 9.0 °F 2.4 °F 5.0 °F 84% 30.09 in 10.0 mi West 3.5 mph - N/A   Clear
1:53 AM 7.0 °F 0.1 °F 3.0 °F 84% 30.09 in 10.0 mi WSW 3.5 mph - N/A   Clear
2:53 AM 9.0 °F -0.9 °F 3.9 °F 80% 30.09 in 10.0 mi WSW 5.8 mph - N/A   Clear
3:53 AM 10.0 °F 0.4 °F 5.0 °F 80% 30.10 in 10.0 mi WSW 5.8 mph - N/A   Clear
4:53 AM 10.9 °F 2.9 °F 6.1 °F 81% 30.09 in 10.0 mi West 4.6 mph - N/A   Clear
5:53 AM 10.9 °F 1.4 °F 6.1 °F 81% 30.10 in 10.0 mi West 5.8 mph - N/A   Clear
6:21 AM 10.4 °F 2.2 °F 6.8 °F 85% 30.05 in 10.0 mi WSW 4.6 mph - N/A   Mostly Cloudy
6:53 AM 9.0 °F -0.9 °F 6.1 °F 88% 30.12 in 10.0 mi West 5.8 mph - N/A   Mostly Cloudy
7:53 AM 16.0 °F 8.8 °F 10.9 °F 81% 30.12 in 10.0 mi WSW 4.6 mph - N/A   Overcast
8:53 AM 19.9 °F 13.4 °F 15.1 °F 81% 30.12 in 10.0 mi WSW 4.6 mph - N/A   Overcast
9:27 AM 21.2 °F 16.4 °F 14.0 °F 74% 30.07 in 10.0 mi WSW 3.5 mph - N/A   Scattered Clouds
9:53 AM 24.1 °F - 15.1 °F 69% 30.12 in 10.0 mi Calm Calm - N/A   Scattered Clouds
10:53 AM 30.0 °F 22.4 °F 19.0 °F 64% 30.12 in 10.0 mi NNE 8.1 mph - N/A   Mostly Cloudy
11:07 AM 28.4 °F 19.7 °F 19.4 °F 69% 30.07 in 10.0 mi NNE 9.2 mph - N/A   Mostly Cloudy
11:41 AM 28.4 °F 20.4 °F 19.4 °F 69% 30.07 in 10.0 mi NNE 8.1 mph - N/A   Overcast
11:53 AM 28.9 °F 21.9 °F 19.9 °F 69% 30.11 in 10.0 mi NNE 6.9 mph - N/A   Mostly Cloudy
12:03 PM 30.2 °F 21.3 °F 19.4 °F 64% 30.06 in 10.0 mi NNE 10.4 mph - N/A   Overcast
12:53 PM 30.0 °F 21.7 °F 21.9 °F 72% 30.10 in 10.0 mi NE 9.2 mph - N/A   Overcast
1:53 PM 30.0 °F 22.4 °F 21.9 °F 72% 30.11 in 10.0 mi NE 8.1 mph - N/A   Overcast
2:53 PM 30.0 °F 23.2 °F 21.9 °F 72% 30.10 in 10.0 mi ENE 6.9 mph - N/A   Overcast
3:53 PM 30.9 °F 23.5 °F 21.0 °F 67% 30.10 in 10.0 mi NE 8.1 mph - N/A   Overcast
4:53 PM 30.0 °F 21.1 °F 21.9 °F 72% 30.11 in 10.0 mi North 10.4 mph - N/A   Overcast
5:53 PM 28.9 °F 22.8 °F 19.9 °F 69% 30.12 in 10.0 mi NE 5.8 mph - N/A   Scattered Clouds
6:53 PM 28.0 °F 24.2 °F 18.0 °F 66% 30.13 in 10.0 mi ENE 3.5 mph - N/A   Clear
7:53 PM 23.0 °F - 17.1 °F 78% 30.13 in 10.0 mi Calm Calm - N/A   Clear
8:53 PM 19.9 °F - 16.0 °F 85% 30.14 in 10.0 mi Calm Calm - N/A   Clear
9:53 PM 17.1 °F - 14.0 °F 88% 30.14 in 10.0 mi Calm Calm - N/A   Clear
10:53 PM 17.1 °F - 14.0 °F 88% 30.14 in 10.0 mi Calm Calm - N/A   Clear
11:49 PM 12.2 °F - 12.2 °F 100% 30.10 in 1.8 mi Calm Calm - N/A   Clear
11:53 PM 12.9 °F - 10.9 °F 92% 30.15 in 0.8 mi Calm Calm - N/A   Clear